CAPE
2 1 1 2 2 0 1 0 1 1 1 1 1 1 1 1 1 1 0 0 0 0 0 0 0 1 2 1 1 1 0 0 0 0 0 0 0 0 0 0 0 0 0 0 0 0 0 0 0 265 219 86 208 254 88 182 266 801 1645 1152 934 967 1086 925 1335 596 888 1523 1873 1358 903 978 949 837 691 604 752 679 530 514 363 362 527 481 567 550 552 623
2 4 4 2 2 2 0 0 1 2 1 1 1 1 0 0 0 0 0 0 0 0 0 0 1 1 1 2 0 1 0 0 0 0 0 0 0 0 0 0 0 0 118 0 0 0 0 0 219 316 14 254 224 204 10 572 311 1502 1054 852 992 1100 883 1314 1728 1850 1304 1394 1790 1265 792 913 920 911 671 558 688 608 595 340 318 475 649 608 535 531 656 662
3 4 2 3 2 2 0 0 2 2 1 0 0 0 0 1 1 0 1 1 1 2 1 2 1 1 1 0 1 0 0 0 0 0 0 0 0 4 0 68 0 0 0 0 0 0 0 0 289 276 162 225 230 217 12 495 260 654 548 701 971 818 1092 1192 1451 2100 1671 2320 1623 1210 995 767 1087 908 692 804 460 519 414 268 261 405 431 411 486 591 650 715
4 3 4 2 3 2 2 3 2 1 1 0 0 0 1 0 1 2 1 2 1 2 2 1 1 0 2 0 0 0 0 0 0 0 4 0 0 17 108 0 0 106 0 0 0 0 0 0 289 237 199 186 111 152 0 256 234 673 444 831 1099 992 1088 1977 1833 1791 1871 1936 2044 1348 1005 1192 1010 1013 767 1055 442 440 384 82 109 267 332 375 403 560 561 646
4 2 2 2 2 3 2 2 1 1 1 2 1 2 2 1 1 1 2 1 1 2 1 2 1 1 1 0 2 0 0 0 0 0 42 90 61 46 289 4 47 0 0 0 0 0 0 318 347 248 63 174 75 130 0 0 0 34 504 304 367 799 777 2582 2065 1869 1677 2019 2248 1605 903 1470 1053 1012 748 826 426 248 433 246 114 195 264 284 384 430 516 577
2 2 3 3 3 2 3 3 1 2 3 3 2 2 1 1 2 1 2 2 1 1 1 1 2 0 0 2 0 0 0 0 0 0 874 28 65 202 594 24 13 0 0 0 0 0 0 0 184 189 75 27 2 0 0 0 56 134 1064 487 629 1029 786 1678 1830 2231 1986 1852 1844 1710 1125 1448 1193 924 850 690 884 826 483 187 220 221 234 230 387 397 380 453
1 2 2 2 3 2 2 1 2 2 2 2 2 0 2 1 2 1 1 1 2 1 0 2 0 0 0 0 0 0 0 0 0 0 522 86 67 402 0 0 0 0 0 0 0 0 0 8 245 0 56 1 0 0 0 0 187 31 130 527 1469 1160 1214 1460 1450 1835 1670 1908 1957 1606 1669 1336 814 974 948 712 1102 854 386 308 230 314 269 300 309 278 344 511
1 1 1 2 2 2 0 1 2 2 2 2 2 2 1 1 2 2 2 2 1 1 1 0 0 0 0 0 0 0 0 0 0 584 275 0 89 108 0 0 0 0 0 0 0 0 0 327 0 0 4 1 0 0 0 114 207 233 277 858 1228 1134 1244 1311 1092 1131 1511 1827 1974 1881 1085 931 801 1133 641 855 781 582 415 221 313 317 329 288 258 309 463 717
2 2 1 1 0 0 0 2 2 2 2 2 2 2 2 2 2 3 2 2 2 2 1 1 0 0 0 0 0 0 0 0 0 0 0 0 0 0 0 0 0 0 0 0 0 0 0 338 0 0 0 0 0 0 68 196 496 214 760 1315 1315 1154 1162 998 1094 1160 1055 992 1598 1381 1267 1288 1008 614 698 980 693 437 244 268 322 352 342 309 289 466 771 773
2 1 1 1 0 1 1 1 2 2 2 2 2 2 2 2 2 2 3 2 3 3 2 0 0 0 0 0 0 0 0 0 0 0 0 0 0 0 0 0 0 0 0 0 0 0 0 35 0 0 0 0 0 182 496 383 702 561 1182 1204 1328 1128 1220 1265 1085 1168 1319 1391 1262 1072 622 529 652 856 549 776 600 455 325 329 417 363 360 318 339 648 759 598
0 0 0 0 1 2 2 1 2 2 1 2 2 2 2 3 2 2 3 3 2 1 0 0 0 0 0 0 0 0 0 0 0 0 0 0 0 0 0 0 0 0 0 0 0 0 0 62 0 0 0 0 0 339 744 1028 1127 1328 1364 1338 1446 1565 1368 1318 1015 1241 1637 1093 1018 672 161 462 208 275 791 826 542 438 301 290 381 367 380 322 509 829 900 385
0 0 0 0 2 2 2 1 1 2 1 1 1 1 2 3 2 3 2 1 0 0 0 0 0 0 0 0 0 0 0 0 0 0 0 0 0 0 0 0 0 0 0 0 0 0 0 0 0 0 0 0 5 449 1146 1435 1681 1473 1435 1229 1926 1683 1295 1408 1292 964 889 558 664 80 132 125 203 617 710 708 784 500 313 281 319 359 436 507 554 795 874 490
1 0 1 1 2 2 2 2 0 0 1 0 1 1 2 2 1 1 1 0 0 0 0 0 0 0 0 0 0 0 0 0 0 0 0 0 0 0 0 0 0 0 0 0 0 0 0 0 0 0 0 0 63 556 1667 1550 1602 1619 1456 1395 1635 1614 942 1653 1765 1310 982 584 460 407 110 68 412 555 718 817 766 562 408 410 317 371 500 715 577 648 702 676
1 1 0 0 1 2 2 0 1 0 1 2 1 1 1 1 1 0 0 0 0 0 0 0 0 0 0 0 0 0 0 0 0 0 0 0 0 0 0 0 0 0 0 0 0 0 0 0 0 0 0 0 317 1112 1546 1892 1361 1163 862 772 479 247 1123 1821 1479 1032 1046 615 384 203 74 223 754 596 812 753 938 638 417 320 337 359 414 715 653 608 636 794
2 2 0 0 0 0 1 1 0 1 0 1 0 0 0 0 0 0 0 0 0 0 0 0 0 0 0 0 0 0 0 0 0 0 0 0 0 0 0 0 0 0 0 0 0 0 0 0 0 0 0 0 284 805 869 615 777 587 365 338 569 320 1163 1705 1880 1250 921 696 720 1220 27 581 405 522 753 863 958 742 463 278 326 384 370 577 664 554 506 703
2 1 1 0 0 0 2 1 1 1 0 0 0 0 0 0 0 0 0 0 0 0 0 0 0 0 0 0 0 0 0 0 0 0 0 0 0 0 0 0 0 0 0 0 0 0 0 0 0 0 0 10 174 446 209 204 225 372 73 251 541 345 928 1172 1545 1944 1097 1036 1267 1133 201 234 211 375 600 866 1028 856 577 384 296 330 340 425 587 537 460 638
3 3 1 1 0 1 2 2 1 0 0 0 0 0 0 0 0 0 0 0 0 0 0 0 0 0 0 0 0 0 0 0 0 0 0 0 0 0 0 0 0 0 0 0 0 0 0 0 0 0 14 68 280 134 5 0 0 20 22 359 308 530 183 591 1106 1857 1907 1559 1038 727 917 512 516 565 1256 1008 1059 1006 790 642 443 406 354 375 384 454 412 488
2 4 2 1 1 1 1 1 0 0 1 0 0 0 0 0 0 0 0 0 0 0 0 0 0 0 0 0 0 0 0 0 0 0 0 0 0 0 0 0 0 0 0 0 0 0 0 0 0 0 0 14 21 53 0 12 31 1 131 264 618 442 288 736 189 1092 1852 1014 1301 991 730 1000 1008 915 1224 1118 1104 1143 937 740 608 485 424 427 430 338 448 434
3 2 2 2 1 0 1 0 0 0 0 0 0 0 0 0 0 0 0 0 0 0 0 0 0 0 0 0 0 0 0 0 0 0 0 0 0 0 0 0 0 0 0 0 0 0 0 0 0 0 0 0 1 0 2 11 3 0 30 340 318 276 511 483 868 1436 1374 1434 1276 962 894 1138 1276 1279 1086 1100 1188 1075 994 1130 883 658 608 574 476 362 366 405
2 2 2 3 2 1 0 1 0 0 0 0 0 0 0 0 0 0 0 0 0 0 0 0 0 0 0 0 0 0 0 0 0 0 0 0 0 0 0 0 0 0 0 0 0 0 0 0 0 0 0 0 0 0 2 0 0 0 4 71 449 204 515 162 334 830 1401 1004 966 876 873 894 1375 1371 1167 1006 1165 1102 1072 1091 1137 903 729 712 492 467 419 382
1 2 2 3 2 1 0 0 0 0 0 0 0 0 0 0 0 0 0 0 0 0 0 0 0 0 0 0 0 0 0 0 0 0 0 0 0 0 0 0 0 0 0 0 0 0 0 0 0 0 0 0 0 0 0 0 0 0 0 0 138 3 0 0 337 886 1319 1018 624 1175 645 782 1465 1430 1036 870 1001 1068 1056 1069 1102 1052 823 750 573 459 514 436
3 1 3 1 2 1 0 0 0 0 0 0 0 0 0 0 0 0 0 0 0 0 0 0 0 0 0 0 0 0 0 0 0 0 0 0 0 0 0 0 0 0 0 0 0 0 0 0 0 0 0 0 0 0 0 0 0 0 0 0 0 1 0 308 689 597 1367 1055 24 390 507 753 1344 1425 1288 881 869 957 948 1041 1121 1076 1067 834 618 547 506 358
1 3 0 2 1 1 0 0 0 0 0 0 0 0 0 0 0 0 0 0 0 0 0 0 0 0 0 0 0 0 0 0 0 0 0 0 0 0 0 0 0 0 0 0 0 0 0 0 0 0 0 0 0 0 0 0 0 0 0 0 1 4 0 309 520 1062 1262 264 6 10 9 351 1057 1666 1458 1213 958 941 1052 1119 1192 1150 1126 912 678 632 573 407
2 1 3 1 1 2 0 0 0 0 0 0 0 0 0 0 0 0 0 0 0 0 0 0 0 0 0 0 0 0 0 0 0 0 0 0 0 0 0 0 0 0 0 0 0 0 0 0 0 0 0 0 0 0 0 0 0 0 0 0 0 0 0 0 352 660 566 1095 875 732 711 642 745 1177 1543 1420 1187 1156 1159 1098 1085 1116 1140 1043 706 451 428 296
2 1 1 2 0 1 0 0 0 0 0 0 0 0 0 0 0 0 0 0 0 0 0 0 0 0 0 0 0 0 0 0 0 0 0 0 0 0 0 0 0 0 0 0 0 0 0 0 0 0 0 0 0 0 0 0 0 0 0 0 0 0 0 0 0 9 184 229 420 81 10 386 400 609 614 1194 1356 1277 1328 1134 1157 1165 1065 1040 846 631 549 370
1 1 2 1 1 1 0 0 0 0 0 0 0 0 0 0 0 0 0 0 0 0 0 0 0 0 0 0 0 0 0 0 0 0 0 0 0 0 0 0 0 0 0 0 0 0 0 0 0 0 0 0 0 0 0 0 0 0 0 0 0 0 0 0 0 0 0 7 843 179 82 191 676 728 466 955 1452 1478 1467 1132 1037 1078 1181 1027 959 686 563 534
2 0 1 2 1 0 0 0 0 0 0 0 0 0 0 0 0 0 0 0 0 0 0 0 0 0 0 0 0 0 0 0 0 0 0 0 0 0 0 0 0 0 0 0 0 0 0 0 0 0 0 0 0 0 0 0 0 0 0 0 0 2 0 0 0 0 0 0 48 376 444 492 503 851 693 800 716 926 1100 997 842 936 1064 1052 855 700 619 480
3 0 1 2 0 1 0 0 0 0 0 0 0 0 0 0 0 0 0 0 0 0 0 0 0 0 0 0 0 0 0 0 0 0 0 0 0 0 0 0 0 0 0 0 0 0 0 0 0 0 0 0 0 0 0 0 0 7 0 0 0 0 10 0 0 0 2 0 0 369 801 402 435 1169 925 856 901 909 825 834 890 963 945 1039 985 760 697 523
1 1 1 1 0 0 0 0 0 0 0 0 0 0 0 0 0 0 0 0 0 0 0 0 0 0 0 0 0 0 0 0 0 0 0 0 0 0 0 0 0 0 0 0 0 0 0 0 0 0 0 0 0 0 0 0 0 0 0 0 0 0 4 0 0 0 0 3 0 159 466 133 108 373 947 1100 1080 1435 1113 730 957 1143 974 921 1043 912 707 629
2 1 0 4 0 0 0 0 0 0 0 0 0 0 0 0 0 0 0 0 0 0 0 0 0 0 0 0 0 0 0 0 0 0 0 0 0 0 0 0 0 0 0 0 0 0 0 0 0 0 0 0 0 0 0 0 0 0 0 18 4 3 15 6 3 4 0 0 19 240 201 204 106 811 655 933 588 1006 803 1059 1229 1257 908 676 1131 1124 757 602
1 0 0 2 0 0 0 0 0 0 0 0 0 0 0 0 0 0 0 0 0 0 0 0 0 0 0 0 0 0 0 0 0 0 0 0 0 0 0 0 0 0 0 0 0 0 0 0 0 0 0 0 0 0 0 0 0 0 3 0 20 46 52 8 1 1 2 2 89 317 586 613 205 423 964 704 1138 1122 1066 1039 1009 814 988 1471 1338 1159 808 587
0 0 0 0 0 0 0 0 0 0 0 0 0 0 0 0 0 0 0 0 0 0 0 0 0 0 0 0 0 0 0 0 0 0 0 0 0 0 0 0 0 0 0 0 0 0 0 0 0 0 0 0 0 0 0 0 0 0 0 0 0 171 3 31 22 14 4 7 28 31 131 598 562 259 1208 760 1367 1386 1244 1256 1212 1346 1312 1009 1179 1324 1084 642
0 0 0 0 0 0 0 0 0 0 0 0 0 0 0 0 0 0 0 0 0 0 0 0 0 0 0 0 0 0 0 0 0 0 0 0 0 0 0 0 0 0 0 0 0 0 0 0 0 0 0 0 0 0 0 0 0 0 0 0 0 9 6 1 34 26 4 0 50 305 424 272 345 1180 1430 1455 1423 1394 1320 1463 1199 1422 1381 1402 1068 1069 1186 1015
0 0 0 0 0 0 0 0 0 0 0 0 0 0 0 0 0 0 0 0 0 0 0 0 0 0 0 0 0 0 0 0 0 0 0 0 0 0 0 0 0 0 0 0 0 0 0 1 0 0 0 0 0 0 0 0 0 0 0 0 14 0 18 33 6 30 26 5 2 250 209 502 333 618 1067 1143 1337 1278 1389 1410 1043 781 983 1314 1543 775 1516 1334
0 0 0 0 0 0 0 0 0 0 0 0 0 0 0 0 0 0 0 0 0 0 0 0 0 0 0 0 0 0 0 0 0 0 0 0 0 0 0 0 0 0 0 0 0 0 0 0 0 0 0 0 0 0 0 0 0 0 0 0 0 9 1 0 96 24 8 2 0 325 160 395 471 780 824 1079 1234 1306 1351 1539 1424 1062 1132 1278 799 984 1243 1510
0 0 0 0 0 0 0 0 0 0 0 0 0 0 0 0 0 0 0 0 0 0 0 0 0 0 0 0 0 0 0 0 0 0 0 0 0 0 0 0 0 0 0 0 0 0 0 0 0 0 0 0 0 0 0 0 1 0 0 0 0 5 0 9 3 0 0 0 1 0 234 290 680 674 845 1238 1312 1330 1434 1630 1602 1180 911 1388 1336 1070 1272 1435
0 0 0 0 0 0 0 0 0 0 0 0 0 0 0 0 0 0 0 0 0 0 0 0 0 0 0 0 0 0 0 0 0 0 0 0 0 0 0 0 0 0 0 0 0 0 0 0 0 0 0 0 0 0 0 0 0 0 1 0 0 0 0 0 5 49 4 10 10 9 10 102 191 43 936 1240 1002 1231 1370 1574 1458 1241 1033 978 1398 1247 1076 1556
0 0 0 0 0 0 0 0 0 0 0 0 0 0 0 0 0 0 0 0 0 0 0 0 0 0 0 0 0 0 0 0 0 0 0 0 0 0 0 0 0 0 0 0 0 0 0 0 0 0 0 0 0 0 0 0 0 0 0 0 0 0 0 0 0 1 19 9 13 2 4 68 349 484 820 1030 1201 1245 1335 1431 1484 1278 1292 1044 944 1203 1648 1570
0 0 0 0 0 0 0 0 0 0 0 0 0 0 0 0 0 0 0 0 0 0 0 0 0 0 0 0 0 0 0 0 0 0 0 0 0 0 0 0 0 0 0 0 0 0 0 0 0 0 0 0 0 0 4 0 0 0 0 0 0 0 0 5 0 0 0 51 35 14 0 66 1148 970 916 1111 1361 1260 1031 1323 1365 1093 889 863 929 1186 1096 1496
0 0 0 0 0 0 0 0 0 0 0 0 0 0 0 0 0 0 0 0 0 0 0 0 0 0 0 0 0 0 0 0 0 0 0 0 0 0 0 0 0 0 0 0 0 0 0 0 3 0 0 0 0 0 0 0 0 0 0 0 0 0 1 0 0 0 0 9 3 4 0 44 797 1187 1121 1030 1332 1211 1174 1248 1298 994 814 899 916 967 1168 1251
0 0 0 0 0 0 0 0 0 0 0 0 0 0 0 0 0 0 0 0 0 0 0 0 0 0 0 0 0 0 0 0 0 0 0 0 0 0 0 0 0 0 0 0 0 0 0 0 0 0 0 0 8 0 0 0 0 0 0 3 17 0 0 0 0 0 0 0 0 0 1 155 850 1062 1131 1167 1242 1210 1239 1220 982 587 671 1009 991 930 1261 1277
0 0 0 0 0 0 0 0 0 0 0 0 0 0 0 0 0 0 0 0 0 0 0 0 0 0 0 0 0 0 0 0 0 0 0 0 0 0 0 0 0 0 0 0 0 0 0 0 0 0 0 2 0 0 0 4 57 66 36 29 6 16 1 1 0 0 0 0 0 0 0 169 1039 1212 1188 1316 1182 1252 1314 1091 859 750 1014 1007 1022 1198 1060 1299
0 0 0 0 0 0 0 0 0 0 0 0 0 0 0 0 0 0 0 0 0 0 0 0 0 0 0 0 0 0 0 0 0 0 0 0 0 0 0 0 0 0 0 0 0 0 0 0 0 0 0 0 0 0 0 1 1 27 11 29 22 107 103 173 224 121 0 0 0 27 8 514 1305 1248 1381 1260 1350 1343 1363 1220 997 888 1018 867 996 1237 1385 1027
0 0 0 0 0 0 0 0 0 0 0 0 0 0 0 0 0 0 0 0 0 0 0 0 0 0 0 0 0 0 0 0 0 0 0 0 0 0 0 0 0 0 0 0 0 0 0 0 0 0 0 0 0 0 0 2 6 3 165 202 260 146 165 259 233 199 4 33 1 6 0 560 1107 1268 1088 1166 1144 1339 1267 1109 910 1002 1068 1087 1158 988 1132 1288
0 0 0 0 0 0 0 0 0 0 0 0 0 0 0 0 0 0 0 0 0 0 0 0 0 0 0 0 0 0 0 0 0 0 0 0 0 0 0 0 0 0 0 0 0 0 0 0 0 0 0 9 13 4 3 0 0 5 147 205 186 432 267 122 87 289 36 549 424 236 78 835 1154 1092 1146 1074 989 1122 1108 1112 1084 1110 1196 1019 1209 1129 1161 1240
0 0 0 0 0 0 0 0 0 0 0 0 0 0 0 0 0 0 0 0 0 0 0 0 0 0 0 0 0 0 0 0 0 0 0 0 0 0 0 0 0 0 606 411 6 0 0 0 0 0 0 0 9 4 0 0 0 0 105 140 342 235 269 130 42 378 177 629 552 313 1254 1181 1135 983 1017 941 1018 1012 1228 1204 1007 1062 1077 943 1017 1022 992 951
0 0 0 0 0 0 0 0 0 0 0 0 0 0 0 0 0 0 0 0 0 0 0 0 0 0 0 0 0 0 0 0 0 0 0 0 0 0 0 0 0 309 271 0 0 0 0 0 0 0 0 0 0 0 0 0 0 1 33 45 193 230 228 56 108 280 746 477 72 1228 1298 1084 1203 955 1008 898 901 992 1060 1129 918 900 784 752 877 890 904 1018
0 0 0 2 0 0 0 0 0 0 0 0 0 0 0 0 0 0 0 0 0 0 0 0 0 0 0 0 0 0 0 0 0 0 0 0 0 0 0 0 0 192 491 0 0 0 0 0 0 0 0 0 0 0 0 0 0 18 24 63 115 330 286 47 180 351 877 897 1150 1140 1307 1204 1212 997 760 746 778 913 653 797 658 708 779 796 799 774 857 868
0 0 0 0 0 0 0 2 0 0 0 0 0 0 0 0 0 0 0 0 0 0 0 0 0 0 0 0 0 0 0 0 0 0 0 0 0 0 0 0 0 0 0 0 0 0 0 0 0 0 0 0 0 0 0 0 64 74 151 108 138 220 572 301 441 638 875 1209 1036 1102 1095 1082 899 837 765 693 683 670 589 553 578 659 753 711 689 658 732 824
0 0 0 0 0 0 0 0 0 0 0 0 0 0 0 0 0 0 0 0 0 0 0 0 0 0 0 0 0 0 2 0 0 5 5 0 0 0 0 0 0 0 0 0 0 0 0 0 0 0 0 0 0 0 0 0 1 37 257 174 118 213 415 674 747 805 1030 1148 973 900 1131 1052 880 738 700 660 664 634 548 486 490 569 595 570 569 565 724 770
0 0 0 0 0 0 0 0 0 0 0 1 0 0 0 0 0 0 0 0 0 0 0 0 0 0 0 0 0 0 0 0 0 0 0 0 0 1 0 0 0 0 0 0 0 0 0 5 0 0 0 0 0 0 2 0 0 0 42 117 144 140 522 613 991 821 760 883 925 891 820 1002 680 592 770 608 552 448 413 421 499 466 526 526 532 414 505 590
0 0 0 9 0 84 0 0 0 1 0 0 10 0 0 0 0 0 0 0 0 0 0 0 0 0 0 0 0 0 0 0 0 0 0 0 0 0 0 0 0 0 0 0 0 0 0 0 0 0 0 0 0 0 0 0 0 0 0 20 168 284 352 539 499 549 758 473 315 573 543 650 457 766 689 412 357 331 331 301 321 388 465 438 457 518 632 801
Wind_Speed
nan nan nan nan nan nan nan nan nan nan nan nan nan nan nan nan nan nan nan nan nan nan nan nan nan nan nan nan nan nan nan nan nan nan nan nan nan nan nan nan nan nan nan nan nan nan nan nan nan 9 5 nan 7 1 nan 2 3 5 6 6 2 5 2 3 2 3 7 7 11 13 12 10 11 8 6 7 4 3 4 1 3 4 5 4 9 15 14 8
nan nan nan nan nan nan nan nan nan nan nan nan nan nan nan nan nan nan nan nan nan nan nan nan nan nan nan nan nan nan nan nan nan nan nan nan nan nan nan nan nan nan 4 nan nan nan nan nan 11 10 nan 6 9 5 nan 6 1 3 1 4 5 4 7 2 3 1 4 6 11 12 12 10 11 12 9 7 7 6 6 5 4 4 6 7 9 14 14 8
nan nan nan nan nan nan nan nan nan nan nan nan nan nan nan nan nan nan nan nan nan nan nan nan nan nan nan nan nan nan nan nan nan nan nan nan nan nan nan nan nan nan nan nan nan nan nan nan 14 10 8 6 10 9 nan 10 1 5 4 3 7 5 6 6 2 3 3 4 12 14 12 10 14 12 10 7 9 6 5 7 9 7 8 9 10 12 13 8
nan nan nan nan nan nan nan nan nan nan nan nan nan nan nan nan nan nan nan nan nan nan nan nan nan nan nan nan nan nan nan nan nan nan nan nan nan nan 11 nan nan 8 nan nan nan nan nan nan 13 8 10 5 12 7 nan 14 3 10 1 6 9 6 3 10 5 4 3 3 9 13 15 12 15 13 10 6 6 4 2 nan 7 10 12 12 10 11 12 8
nan nan nan nan nan nan nan nan nan nan nan nan nan nan nan nan nan nan nan nan nan nan nan nan nan nan nan nan nan nan nan nan nan nan nan nan nan nan 15 nan nan nan nan nan nan nan nan 14 13 10 nan 7 nan 7 nan nan nan nan 9 9 7 6 3 10 6 5 3 4 7 13 18 15 16 14 10 7 2 3 1 1 4 8 12 14 12 10 10 8
nan nan nan nan nan nan nan nan nan nan nan nan nan nan nan nan nan nan nan nan nan nan nan nan nan nan nan nan nan nan nan nan nan nan 20 nan nan 16 17 nan nan nan nan nan nan nan nan nan 13 12 nan nan nan nan nan nan nan 7 13 11 11 10 7 10 7 7 3 7 9 13 15 16 17 15 10 7 7 8 7 2 3 6 8 11 11 10 9 8
nan nan nan nan nan nan nan nan nan nan nan nan nan nan nan nan nan nan nan nan nan nan nan nan nan nan nan nan nan nan nan nan nan nan 23 nan nan 20 nan nan nan nan nan nan nan nan nan nan 12 nan nan nan nan nan nan nan 11 nan 12 15 15 12 9 9 6 6 3 6 9 10 16 17 17 16 11 7 12 10 10 5 3 5 6 8 10 10 9 8
nan nan nan nan nan nan nan nan nan nan nan nan nan nan nan nan nan nan nan nan nan nan nan nan nan nan nan nan nan nan nan nan nan 18 23 nan nan 21 nan nan nan nan nan nan nan nan nan 13 nan nan nan nan nan nan nan 7 11 8 11 15 16 12 15 12 10 7 7 7 10 16 16 16 19 13 12 11 12 10 10 6 5 4 6 6 7 9 9 9
nan nan nan nan nan nan nan nan nan nan nan nan nan nan nan nan nan nan nan nan nan nan nan nan nan nan nan nan nan nan nan nan nan nan nan nan nan nan nan nan nan nan nan nan nan nan nan 15 nan nan nan nan nan nan nan 7 13 11 15 15 14 16 15 16 13 12 11 13 14 16 18 22 21 17 11 12 11 9 10 8 5 4 5 5 6 8 9 8
nan nan nan nan nan nan nan nan nan nan nan nan nan nan nan nan nan nan nan nan nan nan nan nan nan nan nan nan nan nan nan nan nan nan nan nan nan nan nan nan nan nan nan nan nan nan nan nan nan nan nan nan nan 12 12 6 16 14 16 16 17 17 17 18 15 14 14 13 18 17 25 24 21 18 14 12 10 10 9 8 6 3 4 5 5 5 7 8
nan nan nan nan nan nan nan nan nan nan nan nan nan nan nan nan nan nan nan nan nan nan nan nan nan nan nan nan nan nan nan nan nan nan nan nan nan nan nan nan nan nan nan nan nan nan nan nan nan nan nan nan nan 12 10 15 14 15 15 17 17 17 18 18 17 18 15 14 13 25 24 23 23 21 17 12 8 7 8 7 6 2 2 3 5 4 4 6
nan nan nan nan nan nan nan nan nan nan nan nan nan nan nan nan nan nan nan nan nan nan nan nan nan nan nan nan nan nan nan nan nan nan nan nan nan nan nan nan nan nan nan nan nan nan nan nan nan nan nan nan nan 14 14 14 12 14 13 12 17 15 19 20 17 15 13 12 18 nan 21 18 17 16 18 8 8 6 7 7 6 4 1 2 4 2 1 4
nan nan nan nan nan nan nan nan nan nan nan nan nan nan nan nan nan nan nan nan nan nan nan nan nan nan nan nan nan nan nan nan nan nan nan nan nan nan nan nan nan nan nan nan nan nan nan nan nan nan nan nan nan 15 20 10 13 10 10 11 12 13 18 20 19 16 15 13 19 15 11 nan 11 16 13 8 7 6 6 6 6 5 2 1 1 2 2 3
nan nan nan nan nan nan nan nan nan nan nan nan nan nan nan nan nan nan nan nan nan nan nan nan nan nan nan nan nan nan nan nan nan nan nan nan nan nan nan nan nan nan nan nan nan nan nan nan nan nan nan nan 16 16 12 12 10 9 11 7 9 11 16 19 18 16 16 12 14 3 nan 8 8 15 13 9 7 5 6 6 6 5 3 2 2 1 1 3
nan nan nan nan nan nan nan nan nan nan nan nan nan nan nan nan nan nan nan nan nan nan nan nan nan nan nan nan nan nan nan nan nan nan nan nan nan nan nan nan nan nan nan nan nan nan nan nan nan nan nan nan 13 9 10 9 9 11 6 9 12 14 18 18 16 14 13 10 7 7 nan 11 10 12 12 9 7 7 6 6 6 5 4 2 3 1 1 3
nan nan nan nan nan nan nan nan nan nan nan nan nan nan nan nan nan nan nan nan nan nan nan nan nan nan nan nan nan nan nan nan nan nan nan nan nan nan nan nan nan nan nan nan nan nan nan nan nan nan nan nan 9 9 11 9 10 12 nan 14 13 13 14 16 17 14 14 10 3 7 9 10 15 13 7 7 6 7 7 6 6 5 3 2 3 3 1 4
nan nan nan nan nan nan nan nan nan nan nan nan nan nan nan nan nan nan nan nan nan nan nan nan nan nan nan nan nan nan nan nan nan nan nan nan nan nan nan nan nan nan nan nan nan nan nan nan nan nan nan nan 13 12 nan nan nan nan nan 16 16 15 14 13 12 9 8 4 7 6 9 14 12 8 6 3 5 5 7 7 6 6 5 4 3 3 2 3
nan nan nan nan nan nan nan nan nan nan nan nan nan nan nan nan nan nan nan nan nan nan nan nan nan nan nan nan nan nan nan nan nan nan nan nan nan nan nan nan nan nan nan nan nan nan nan nan nan nan nan nan nan nan nan nan nan nan 17 15 14 13 17 18 13 10 5 8 8 12 15 14 11 6 4 0 1 4 5 6 6 5 5 4 4 3 2 2
nan nan nan nan nan nan nan nan nan nan nan nan nan nan nan nan nan nan nan nan nan nan nan nan nan nan nan nan nan nan nan nan nan nan nan nan nan nan nan nan nan nan nan nan nan nan nan nan nan nan nan nan nan nan nan nan nan nan nan 16 14 18 18 22 16 7 10 9 8 10 13 14 11 9 5 3 3 1 3 6 7 6 6 5 4 4 3 2
nan nan nan nan nan nan nan nan nan nan nan nan nan nan nan nan nan nan nan nan nan nan nan nan nan nan nan nan nan nan nan nan nan nan nan nan nan nan nan nan nan nan nan nan nan nan nan nan nan nan nan nan nan nan nan nan nan nan nan nan 16 15 15 18 17 14 13 12 12 15 12 11 10 9 6 4 5 3 0 3 5 6 6 6 5 4 4 3
nan nan nan nan nan nan nan nan nan nan nan nan nan nan nan nan nan nan nan nan nan nan nan nan nan nan nan nan nan nan nan nan nan nan nan nan nan nan nan nan nan nan nan nan nan nan nan nan nan nan nan nan nan nan nan nan nan nan nan nan 15 nan nan nan 20 15 14 15 18 15 14 12 9 9 6 4 4 4 3 2 3 5 5 7 5 5 4 4
nan nan nan nan nan nan nan nan nan nan nan nan nan nan nan nan nan nan nan nan nan nan nan nan nan nan nan nan nan nan nan nan nan nan nan nan nan nan nan nan nan nan nan nan nan nan nan nan nan nan nan nan nan nan nan nan nan nan nan nan nan nan nan 21 22 18 16 13 nan 18 16 13 8 7 6 3 2 2 3 3 4 4 4 6 7 6 5 4
nan nan nan nan nan nan nan nan nan nan nan nan nan nan nan nan nan nan nan nan nan nan nan nan nan nan nan nan nan nan nan nan nan nan nan nan nan nan nan nan nan nan nan nan nan nan nan nan nan nan nan nan nan nan nan nan nan nan nan nan nan nan nan 17 20 21 17 17 nan nan nan 13 9 7 6 5 4 5 4 4 4 4 4 4 4 5 5 4
nan nan nan nan nan nan nan nan nan nan nan nan nan nan nan nan nan nan nan nan nan nan nan nan nan nan nan nan nan nan nan nan nan nan nan nan nan nan nan nan nan nan nan nan nan nan nan nan nan nan nan nan nan nan nan nan nan nan nan nan nan nan nan nan 22 19 18 17 16 13 8 8 7 7 8 7 7 7 5 4 4 5 4 4 3 3 4 5
nan nan nan nan nan nan nan nan nan nan nan nan nan nan nan nan nan nan nan nan nan nan nan nan nan nan nan nan nan nan nan nan nan nan nan nan nan nan nan nan nan nan nan nan nan nan nan nan nan nan nan nan nan nan nan nan nan nan nan nan nan nan nan nan nan nan 16 18 18 nan nan 12 16 13 10 13 11 8 7 4 3 5 5 3 2 1 3 5
nan nan nan nan nan nan nan nan nan nan nan nan nan nan nan nan nan nan nan nan nan nan nan nan nan nan nan nan nan nan nan nan nan nan nan nan nan nan nan nan nan nan nan nan nan nan nan nan nan nan nan nan nan nan nan nan nan nan nan nan nan nan nan nan nan nan nan nan 27 21 nan 16 12 15 14 16 15 11 9 3 3 4 4 3 2 3 2 3
nan nan nan nan nan nan nan nan nan nan nan nan nan nan nan nan nan nan nan nan nan nan nan nan nan nan nan nan nan nan nan nan nan nan nan nan nan nan nan nan nan nan nan nan nan nan nan nan nan nan nan nan nan nan nan nan nan nan nan nan nan nan nan nan nan nan nan nan nan 19 20 17 13 19 18 17 16 15 10 6 5 5 3 1 1 3 3 3
nan nan nan nan nan nan nan nan nan nan nan nan nan nan nan nan nan nan nan nan nan nan nan nan nan nan nan nan nan nan nan nan nan nan nan nan nan nan nan nan nan nan nan nan nan nan nan nan nan nan nan nan nan nan nan nan nan nan nan nan nan nan nan nan nan nan nan nan nan 19 20 17 17 22 18 17 17 19 15 11 9 8 7 6 4 3 4 4
nan nan nan nan nan nan nan nan nan nan nan nan nan nan nan nan nan nan nan nan nan nan nan nan nan nan nan nan nan nan nan nan nan nan nan nan nan nan nan nan nan nan nan nan nan nan nan nan nan nan nan nan nan nan nan nan nan nan nan nan nan nan nan nan nan nan nan nan nan 22 18 20 26 24 19 17 18 20 19 16 12 9 7 6 5 4 4 6
nan nan nan nan nan nan nan nan nan nan nan nan nan nan nan nan nan nan nan nan nan nan nan nan nan nan nan nan nan nan nan nan nan nan nan nan nan nan nan nan nan nan nan nan nan nan nan nan nan nan nan nan nan nan nan nan nan nan nan nan nan nan nan nan nan nan nan nan nan 26 19 21 23 24 19 18 20 21 21 22 20 14 8 6 6 5 5 7
nan nan nan nan nan nan nan nan nan nan nan nan nan nan nan nan nan nan nan nan nan nan nan nan nan nan nan nan nan nan nan nan nan nan nan nan nan nan nan nan nan nan nan nan nan nan nan nan nan nan nan nan nan nan nan nan nan nan nan nan nan nan nan nan nan nan nan nan nan 25 27 23 21 24 21 22 20 19 18 18 16 16 12 12 11 10 7 7
nan nan nan nan nan nan nan nan nan nan nan nan nan nan nan nan nan nan nan nan nan nan nan nan nan nan nan nan nan nan nan nan nan nan nan nan nan nan nan nan nan nan nan nan nan nan nan nan nan nan nan nan nan nan nan nan nan nan nan nan nan 21 nan nan nan nan nan nan nan nan 25 22 23 28 25 24 24 22 21 18 18 17 14 15 13 12 14 11
nan nan nan nan nan nan nan nan nan nan nan nan nan nan nan nan nan nan nan nan nan nan nan nan nan nan nan nan nan nan nan nan nan nan nan nan nan nan nan nan nan nan nan nan nan nan nan nan nan nan nan nan nan nan nan nan nan nan nan nan nan nan nan nan nan nan nan nan nan 29 29 19 23 29 30 28 28 26 27 23 23 19 15 11 10 10 16 14
nan nan nan nan nan nan nan nan nan nan nan nan nan nan nan nan nan nan nan nan nan nan nan nan nan nan nan nan nan nan nan nan nan nan nan nan nan nan nan nan nan nan nan nan nan nan nan nan nan nan nan nan nan nan nan nan nan nan nan nan nan nan nan nan nan nan nan nan nan 29 21 26 23 26 26 34 31 32 30 30 25 21 18 15 12 11 16 17
nan nan nan nan nan nan nan nan nan nan nan nan nan nan nan nan nan nan nan nan nan nan nan nan nan nan nan nan nan nan nan nan nan nan nan nan nan nan nan nan nan nan nan nan nan nan nan nan nan nan nan nan nan nan nan nan nan nan nan nan nan nan nan nan nan nan nan nan nan 24 23 27 27 24 29 30 33 33 33 32 29 25 25 23 21 16 16 18
nan nan nan nan nan nan nan nan nan nan nan nan nan nan nan nan nan nan nan nan nan nan nan nan nan nan nan nan nan nan nan nan nan nan nan nan nan nan nan nan nan nan nan nan nan nan nan nan nan nan nan nan nan nan nan nan nan nan nan nan nan nan nan nan nan nan nan nan nan nan 23 29 29 21 27 28 31 34 34 34 32 30 27 25 26 24 17 14
nan nan nan nan nan nan nan nan nan nan nan nan nan nan nan nan nan nan nan nan nan nan nan nan nan nan nan nan nan nan nan nan nan nan nan nan nan nan nan nan nan nan nan nan nan nan nan nan nan nan nan nan nan nan nan nan nan nan nan nan nan nan nan nan nan nan nan nan nan nan nan 21 21 nan 24 33 34 36 35 35 33 31 30 25 25 23 21 20
nan nan nan nan nan nan nan nan nan nan nan nan nan nan nan nan nan nan nan nan nan nan nan nan nan nan nan nan nan nan nan nan nan nan nan nan nan nan nan nan nan nan nan nan nan nan nan nan nan nan nan nan nan nan nan nan nan nan nan nan nan nan nan nan nan nan nan nan nan nan nan nan 19 24 29 33 34 34 35 33 31 30 30 28 24 22 23 24
nan nan nan nan nan nan nan nan nan nan nan nan nan nan nan nan nan nan nan nan nan nan nan nan nan nan nan nan nan nan nan nan nan nan nan nan nan nan nan nan nan nan nan nan nan nan nan nan nan nan nan nan nan nan nan nan nan nan nan nan nan nan nan nan nan nan nan nan nan nan nan nan 28 24 26 33 35 35 34 31 29 28 27 24 22 22 20 19
nan nan nan nan nan nan nan nan nan nan nan nan nan nan nan nan nan nan nan nan nan nan nan nan nan nan nan nan nan nan nan nan nan nan nan nan nan nan nan nan nan nan nan nan nan nan nan nan nan nan nan nan nan nan nan nan nan nan nan nan nan nan nan nan nan nan nan nan nan nan nan nan 28 24 26 32 36 36 34 29 27 27 25 24 23 22 22 20
nan nan nan nan nan nan nan nan nan nan nan nan nan nan nan nan nan nan nan nan nan nan nan nan nan nan nan nan nan nan nan nan nan nan nan nan nan nan nan nan nan nan nan nan nan nan nan nan nan nan nan nan nan nan nan nan nan nan nan nan nan nan nan nan nan nan nan nan nan nan nan 31 32 27 27 33 35 35 33 30 30 29 26 26 24 23 21 20
nan nan nan nan nan nan nan nan nan nan nan nan nan nan nan nan nan nan nan nan nan nan nan nan nan nan nan nan nan nan nan nan nan nan nan nan nan nan nan nan nan nan nan nan nan nan nan nan nan nan nan nan nan nan nan nan nan nan nan nan nan nan nan nan nan nan nan nan nan nan nan 31 32 28 31 37 38 36 33 31 31 29 28 28 25 25 25 24
nan nan nan nan nan nan nan nan nan nan nan nan nan nan nan nan nan nan nan nan nan nan nan nan nan nan nan nan nan nan nan nan nan nan nan nan nan nan nan nan nan nan nan nan nan nan nan nan nan nan nan nan nan nan nan nan nan nan nan nan nan 14 15 15 18 19 nan nan nan nan nan 33 34 31 34 43 42 35 31 30 32 31 30 29 26 24 25 24
nan nan nan nan nan nan nan nan nan nan nan nan nan nan nan nan nan nan nan nan nan nan nan nan nan nan nan nan nan nan nan nan nan nan nan nan nan nan nan nan nan nan nan nan nan nan nan nan nan nan nan nan nan nan nan nan nan nan 19 22 21 19 17 19 22 22 nan nan nan nan nan 32 32 26 36 46 45 37 31 31 30 31 30 30 28 27 25 24
nan nan nan nan nan nan nan nan nan nan nan nan nan nan nan nan nan nan nan nan nan nan nan nan nan nan nan nan nan nan nan nan nan nan nan nan nan nan nan nan nan nan nan nan nan nan nan nan nan nan nan nan nan nan nan nan nan nan 18 17 17 18 19 19 nan 21 nan 28 20 20 nan 33 28 27 37 46 45 36 30 29 32 31 31 30 30 28 27 26
nan nan nan nan nan nan nan nan nan nan nan nan nan nan nan nan nan nan nan nan nan nan nan nan nan nan nan nan nan nan nan nan nan nan nan nan nan nan nan nan nan nan 22 18 nan nan nan nan nan nan nan nan nan nan nan nan nan nan 18 15 17 19 24 23 nan 20 22 26 23 24 33 33 31 30 34 40 39 33 29 31 33 32 31 30 31 29 28 29
nan nan nan nan nan nan nan nan nan nan nan nan nan nan nan nan nan nan nan nan nan nan nan nan nan nan nan nan nan nan nan nan nan nan nan nan nan nan nan nan nan 22 21 nan nan nan nan nan nan nan nan nan nan nan nan nan nan nan nan nan 16 17 20 nan 23 22 26 25 nan 34 27 29 33 31 28 34 38 34 32 32 33 31 30 30 30 30 31 31
nan nan nan nan nan nan nan nan nan nan nan nan nan nan nan nan nan nan nan nan nan nan nan nan nan nan nan nan nan nan nan nan nan nan nan nan nan nan nan nan nan 23 15 nan nan nan nan nan nan nan nan nan nan nan nan nan nan nan nan nan 14 17 15 nan 22 20 21 21 22 29 24 25 31 30 26 28 32 35 35 35 33 31 31 32 32 34 37 38
nan nan nan nan nan nan nan nan nan nan nan nan nan nan nan nan nan nan nan nan nan nan nan nan nan nan nan nan nan nan nan nan nan nan nan nan nan nan nan nan nan nan nan nan nan nan nan nan nan nan nan nan nan nan nan nan nan nan 17 17 18 17 22 18 19 21 23 28 28 26 29 30 30 28 29 26 28 30 31 33 34 33 33 34 37 37 36 39
nan nan nan nan nan nan nan nan nan nan nan nan nan nan nan nan nan nan nan nan nan nan nan nan nan nan nan nan nan nan nan nan nan nan nan nan nan nan nan nan nan nan nan nan nan nan nan nan nan nan nan nan nan nan nan nan nan nan 17 15 16 20 21 24 26 27 26 26 27 25 26 29 31 28 30 30 29 28 30 34 33 32 33 36 41 41 36 37
nan nan nan nan nan nan nan nan nan nan nan nan nan nan nan nan nan nan nan nan nan nan nan nan nan nan nan nan nan nan nan nan nan nan nan nan nan nan nan nan nan nan nan nan nan nan nan nan nan nan nan nan nan nan nan nan nan nan nan 13 15 16 18 22 23 25 20 23 22 21 21 26 30 31 30 34 32 31 31 32 30 29 33 36 44 43 33 28
nan nan nan nan nan nan nan nan nan nan nan nan nan nan nan nan nan nan nan nan nan nan nan nan nan nan nan nan nan nan nan nan nan nan nan nan nan nan nan nan nan nan nan nan nan nan nan nan nan nan nan nan nan nan nan nan nan nan nan nan 15 15 17 22 24 25 23 28 21 18 25 30 31 30 32 32 33 34 31 29 26 29 34 37 41 43 38 32
Wind_Direction
nan nan nan nan nan nan nan nan nan nan nan nan nan nan nan nan nan nan nan nan nan nan nan nan nan nan nan nan nan nan nan nan nan nan nan nan nan nan nan nan nan nan nan nan nan nan nan nan nan 281 285 nan 270 335 nan 72 116 59 45 82 322 265 260 244 94 313 357 19 345 355 353 342 335 340 325 348 330 316 339 319 184 188 195 244 298 307 304 316
nan nan nan nan nan nan nan nan nan nan nan nan nan nan nan nan nan nan nan nan nan nan nan nan nan nan nan nan nan nan nan nan nan nan nan nan nan nan nan nan nan nan 265 nan nan nan nan nan 279 287 nan 277 261 263 nan 275 173 92 224 110 250 239 272 226 184 217 6 349 337 352 353 341 333 332 334 3 344 354 349 341 330 268 267 290 316 311 307 325
nan nan nan nan nan nan nan nan nan nan nan nan nan nan nan nan nan nan nan nan nan nan nan nan nan nan nan nan nan nan nan nan nan nan nan nan nan nan nan nan nan nan nan nan nan nan nan nan 273 283 267 240 276 263 nan 266 235 248 138 224 263 245 263 264 258 270 286 317 342 343 347 346 313 329 330 11 347 0 7 350 337 321 312 318 324 322 312 327
nan nan nan nan nan nan nan nan nan nan nan nan nan nan nan nan nan nan nan nan nan nan nan nan nan nan nan nan nan nan nan nan nan nan nan nan nan nan 263 nan nan 275 nan nan nan nan nan nan 275 276 261 250 269 261 nan 266 239 254 178 222 253 242 256 275 261 255 281 355 344 345 338 329 321 318 334 336 347 351 19 nan 345 332 329 324 334 332 321 329
nan nan nan nan nan nan nan nan nan nan nan nan nan nan nan nan nan nan nan nan nan nan nan nan nan nan nan nan nan nan nan nan nan nan nan nan nan nan 267 nan nan nan nan nan nan nan nan 274 278 273 nan 263 nan 266 nan nan nan nan 236 232 239 251 231 254 231 253 281 317 351 340 344 336 306 316 339 323 255 247 281 3 352 331 336 331 335 337 327 332
nan nan nan nan nan nan nan nan nan nan nan nan nan nan nan nan nan nan nan nan nan nan nan nan nan nan nan nan nan nan nan nan nan nan 261 nan nan 266 271 nan nan nan nan nan nan nan nan nan 277 279 nan nan nan nan nan nan nan 249 271 259 255 244 223 238 229 249 281 320 347 346 341 318 317 310 327 311 239 213 199 263 306 329 343 335 332 334 330 330
nan nan nan nan nan nan nan nan nan nan nan nan nan nan nan nan nan nan nan nan nan nan nan nan nan nan nan nan nan nan nan nan nan nan 272 nan nan 269 nan nan nan nan nan nan nan nan nan nan 278 nan nan nan nan nan nan nan 276 nan 250 254 262 255 247 245 247 253 303 313 335 337 313 320 315 306 306 292 240 226 232 238 285 310 341 341 336 336 327 322
nan nan nan nan nan nan nan nan nan nan nan nan nan nan nan nan nan nan nan nan nan nan nan nan nan nan nan nan nan nan nan nan nan 265 276 nan nan 274 nan nan nan nan nan nan nan nan nan 267 nan nan nan nan nan nan nan 254 278 274 267 262 258 263 256 254 259 279 289 316 304 310 313 318 295 285 292 264 235 239 250 250 262 303 338 348 340 329 321 318
nan nan nan nan nan nan nan nan nan nan nan nan nan nan nan nan nan nan nan nan nan nan nan nan nan nan nan nan nan nan nan nan nan nan nan nan nan nan nan nan nan nan nan nan nan nan nan 266 nan nan nan nan nan nan nan 231 278 256 257 264 254 253 259 264 274 287 294 298 308 323 308 266 245 235 272 240 224 241 255 256 267 292 339 346 347 329 322 321
nan nan nan nan nan nan nan nan nan nan nan nan nan nan nan nan nan nan nan nan nan nan nan nan nan nan nan nan nan nan nan nan nan nan nan nan nan nan nan nan nan nan nan nan nan nan nan nan nan nan nan nan nan 241 229 237 244 253 263 259 258 258 257 262 264 278 284 304 304 310 280 261 238 219 227 210 220 243 255 256 262 299 340 343 347 335 323 325
nan nan nan nan nan nan nan nan nan nan nan nan nan nan nan nan nan nan nan nan nan nan nan nan nan nan nan nan nan nan nan nan nan nan nan nan nan nan nan nan nan nan nan nan nan nan nan nan nan nan nan nan nan 254 244 245 249 265 267 270 268 265 263 263 269 271 282 275 293 290 282 260 231 209 193 190 212 237 256 255 259 268 348 341 335 335 320 320
nan nan nan nan nan nan nan nan nan nan nan nan nan nan nan nan nan nan nan nan nan nan nan nan nan nan nan nan nan nan nan nan nan nan nan nan nan nan nan nan nan nan nan nan nan nan nan nan nan nan nan nan nan 251 256 257 258 266 273 261 273 281 264 256 259 271 282 276 295 nan 290 275 241 199 190 177 204 216 243 252 251 252 272 0 321 309 333 314
nan nan nan nan nan nan nan nan nan nan nan nan nan nan nan nan nan nan nan nan nan nan nan nan nan nan nan nan nan nan nan nan nan nan nan nan nan nan nan nan nan nan nan nan nan nan nan nan nan nan nan nan nan 232 251 256 256 262 276 257 284 297 260 250 267 271 270 267 305 307 289 nan 255 195 166 190 201 203 227 235 237 228 198 135 338 295 317 299
nan nan nan nan nan nan nan nan nan nan nan nan nan nan nan nan nan nan nan nan nan nan nan nan nan nan nan nan nan nan nan nan nan nan nan nan nan nan nan nan nan nan nan nan nan nan nan nan nan nan nan nan 233 253 268 261 260 243 246 259 235 252 258 255 257 268 256 269 308 295 nan 262 214 177 185 191 184 190 214 224 224 224 211 162 115 289 290 280
nan nan nan nan nan nan nan nan nan nan nan nan nan nan nan nan nan nan nan nan nan nan nan nan nan nan nan nan nan nan nan nan nan nan nan nan nan nan nan nan nan nan nan nan nan nan nan nan nan nan nan nan 235 251 248 249 251 240 224 235 241 241 262 260 259 252 258 273 299 175 nan 184 174 162 191 184 167 178 192 213 221 212 212 177 124 113 298 270
nan nan nan nan nan nan nan nan nan nan nan nan nan nan nan nan nan nan nan nan nan nan nan nan nan nan nan nan nan nan nan nan nan nan nan nan nan nan nan nan nan nan nan nan nan nan nan nan nan nan nan nan 231 228 232 232 246 245 nan 221 228 244 264 283 256 253 261 277 296 183 190 187 172 149 193 167 156 176 184 205 208 218 213 205 135 125 233 265
nan nan nan nan nan nan nan nan nan nan nan nan nan nan nan nan nan nan nan nan nan nan nan nan nan nan nan nan nan nan nan nan nan nan nan nan nan nan nan nan nan nan nan nan nan nan nan nan nan nan nan nan 222 219 nan nan nan nan nan 218 225 230 249 252 260 253 248 261 251 167 171 196 187 150 188 168 149 178 186 201 200 201 195 197 158 126 211 260
nan nan nan nan nan nan nan nan nan nan nan nan nan nan nan nan nan nan nan nan nan nan nan nan nan nan nan nan nan nan nan nan nan nan nan nan nan nan nan nan nan nan nan nan nan nan nan nan nan nan nan nan nan nan nan nan nan nan 214 215 234 248 245 240 240 225 222 229 208 209 190 222 219 204 215 213 193 182 189 205 204 193 195 195 170 155 204 233
nan nan nan nan nan nan nan nan nan nan nan nan nan nan nan nan nan nan nan nan nan nan nan nan nan nan nan nan nan nan nan nan nan nan nan nan nan nan nan nan nan nan nan nan nan nan nan nan nan nan nan nan nan nan nan nan nan nan nan 212 212 220 218 230 239 232 199 212 215 208 196 224 219 221 229 280 306 250 181 205 204 187 194 185 186 193 190 207
nan nan nan nan nan nan nan nan nan nan nan nan nan nan nan nan nan nan nan nan nan nan nan nan nan nan nan nan nan nan nan nan nan nan nan nan nan nan nan nan nan nan nan nan nan nan nan nan nan nan nan nan nan nan nan nan nan nan nan nan 215 216 242 242 226 212 208 191 212 211 203 195 207 221 245 273 307 335 207 213 210 199 188 183 191 212 210 215
nan nan nan nan nan nan nan nan nan nan nan nan nan nan nan nan nan nan nan nan nan nan nan nan nan nan nan nan nan nan nan nan nan nan nan nan nan nan nan nan nan nan nan nan nan nan nan nan nan nan nan nan nan nan nan nan nan nan nan nan 224 nan nan nan 221 214 207 197 217 211 198 190 198 225 240 259 310 344 335 271 228 220 197 188 185 207 229 235
nan nan nan nan nan nan nan nan nan nan nan nan nan nan nan nan nan nan nan nan nan nan nan nan nan nan nan nan nan nan nan nan nan nan nan nan nan nan nan nan nan nan nan nan nan nan nan nan nan nan nan nan nan nan nan nan nan nan nan nan nan nan nan 234 232 206 211 203 nan 207 195 195 214 228 241 263 271 250 297 289 274 251 230 203 192 200 218 218
nan nan nan nan nan nan nan nan nan nan nan nan nan nan nan nan nan nan nan nan nan nan nan nan nan nan nan nan nan nan nan nan nan nan nan nan nan nan nan nan nan nan nan nan nan nan nan nan nan nan nan nan nan nan nan nan nan nan nan nan nan nan nan 232 219 215 206 193 nan nan nan 202 219 242 235 237 223 221 244 276 269 257 250 237 215 208 197 201
nan nan nan nan nan nan nan nan nan nan nan nan nan nan nan nan nan nan nan nan nan nan nan nan nan nan nan nan nan nan nan nan nan nan nan nan nan nan nan nan nan nan nan nan nan nan nan nan nan nan nan nan nan nan nan nan nan nan nan nan nan nan nan nan 227 222 210 201 188 178 194 211 234 245 239 235 244 240 246 269 278 263 239 239 221 209 198 176
nan nan nan nan nan nan nan nan nan nan nan nan nan nan nan nan nan nan nan nan nan nan nan nan nan nan nan nan nan nan nan nan nan nan nan nan nan nan nan nan nan nan nan nan nan nan nan nan nan nan nan nan nan nan nan nan nan nan nan nan nan nan nan nan nan nan 209 228 211 nan nan 243 239 247 245 251 247 249 246 259 278 271 275 257 271 254 199 173
nan nan nan nan nan nan nan nan nan nan nan nan nan nan nan nan nan nan nan nan nan nan nan nan nan nan nan nan nan nan nan nan nan nan nan nan nan nan nan nan nan nan nan nan nan nan nan nan nan nan nan nan nan nan nan nan nan nan nan nan nan nan nan nan nan nan nan nan 227 208 nan 212 248 246 251 257 248 244 239 227 255 267 270 285 249 256 209 180
nan nan nan nan nan nan nan nan nan nan nan nan nan nan nan nan nan nan nan nan nan nan nan nan nan nan nan nan nan nan nan nan nan nan nan nan nan nan nan nan nan nan nan nan nan nan nan nan nan nan nan nan nan nan nan nan nan nan nan nan nan nan nan nan nan nan nan nan nan 221 209 207 219 243 245 261 256 248 238 227 230 226 241 241 238 269 253 199
nan nan nan nan nan nan nan nan nan nan nan nan nan nan nan nan nan nan nan nan nan nan nan nan nan nan nan nan nan nan nan nan nan nan nan nan nan nan nan nan nan nan nan nan nan nan nan nan nan nan nan nan nan nan nan nan nan nan nan nan nan nan nan nan nan nan nan nan nan 232 230 215 228 246 243 252 245 241 239 231 230 213 201 209 190 196 259 234
nan nan nan nan nan nan nan nan nan nan nan nan nan nan nan nan nan nan nan nan nan nan nan nan nan nan nan nan nan nan nan nan nan nan nan nan nan nan nan nan nan nan nan nan nan nan nan nan nan nan nan nan nan nan nan nan nan nan nan nan nan nan nan nan nan nan nan nan nan 230 225 211 225 228 224 233 232 238 235 233 229 219 209 226 215 188 203 241
nan nan nan nan nan nan nan nan nan nan nan nan nan nan nan nan nan nan nan nan nan nan nan nan nan nan nan nan nan nan nan nan nan nan nan nan nan nan nan nan nan nan nan nan nan nan nan nan nan nan nan nan nan nan nan nan nan nan nan nan nan nan nan nan nan nan nan nan nan 220 209 209 221 234 237 229 232 228 222 231 237 249 247 232 251 242 219 225
nan nan nan nan nan nan nan nan nan nan nan nan nan nan nan nan nan nan nan nan nan nan nan nan nan nan nan nan nan nan nan nan nan nan nan nan nan nan nan nan nan nan nan nan nan nan nan nan nan nan nan nan nan nan nan nan nan nan nan nan nan nan nan nan nan nan nan nan nan 215 211 211 211 230 227 227 226 220 224 223 226 231 220 234 243 245 244 234
nan nan nan nan nan nan nan nan nan nan nan nan nan nan nan nan nan nan nan nan nan nan nan nan nan nan nan nan nan nan nan nan nan nan nan nan nan nan nan nan nan nan nan nan nan nan nan nan nan nan nan nan nan nan nan nan nan nan nan nan nan 250 nan nan nan nan nan nan nan nan 211 208 218 231 219 216 220 220 222 219 217 224 230 223 219 240 248 233
nan nan nan nan nan nan nan nan nan nan nan nan nan nan nan nan nan nan nan nan nan nan nan nan nan nan nan nan nan nan nan nan nan nan nan nan nan nan nan nan nan nan nan nan nan nan nan nan nan nan nan nan nan nan nan nan nan nan nan nan nan nan nan nan nan nan nan nan nan 227 224 221 214 238 230 223 221 218 218 216 214 217 227 249 239 237 251 243
nan nan nan nan nan nan nan nan nan nan nan nan nan nan nan nan nan nan nan nan nan nan nan nan nan nan nan nan nan nan nan nan nan nan nan nan nan nan nan nan nan nan nan nan nan nan nan nan nan nan nan nan nan nan nan nan nan nan nan nan nan nan nan nan nan nan nan nan nan 236 226 230 226 239 219 225 222 221 220 223 222 217 223 250 258 230 249 253
nan nan nan nan nan nan nan nan nan nan nan nan nan nan nan nan nan nan nan nan nan nan nan nan nan nan nan nan nan nan nan nan nan nan nan nan nan nan nan nan nan nan nan nan nan nan nan nan nan nan nan nan nan nan nan nan nan nan nan nan nan nan nan nan nan nan nan nan nan 249 237 225 230 232 229 216 225 223 220 223 222 223 225 251 271 261 247 241
nan nan nan nan nan nan nan nan nan nan nan nan nan nan nan nan nan nan nan nan nan nan nan nan nan nan nan nan nan nan nan nan nan nan nan nan nan nan nan nan nan nan nan nan nan nan nan nan nan nan nan nan nan nan nan nan nan nan nan nan nan nan nan nan nan nan nan nan nan nan 239 232 237 248 231 217 222 221 219 220 221 223 225 238 255 262 258 248
nan nan nan nan nan nan nan nan nan nan nan nan nan nan nan nan nan nan nan nan nan nan nan nan nan nan nan nan nan nan nan nan nan nan nan nan nan nan nan nan nan nan nan nan nan nan nan nan nan nan nan nan nan nan nan nan nan nan nan nan nan nan nan nan nan nan nan nan nan nan nan 239 229 nan 215 216 214 216 215 216 220 225 229 231 251 263 269 265
nan nan nan nan nan nan nan nan nan nan nan nan nan nan nan nan nan nan nan nan nan nan nan nan nan nan nan nan nan nan nan nan nan nan nan nan nan nan nan nan nan nan nan nan nan nan nan nan nan nan nan nan nan nan nan nan nan nan nan nan nan nan nan nan nan nan nan nan nan nan nan nan 220 216 211 208 212 212 212 211 215 223 224 227 230 247 262 268
nan nan nan nan nan nan nan nan nan nan nan nan nan nan nan nan nan nan nan nan nan nan nan nan nan nan nan nan nan nan nan nan nan nan nan nan nan nan nan nan nan nan nan nan nan nan nan nan nan nan nan nan nan nan nan nan nan nan nan nan nan nan nan nan nan nan nan nan nan nan nan nan 225 225 211 208 207 213 212 208 211 219 223 222 222 227 248 268
nan nan nan nan nan nan nan nan nan nan nan nan nan nan nan nan nan nan nan nan nan nan nan nan nan nan nan nan nan nan nan nan nan nan nan nan nan nan nan nan nan nan nan nan nan nan nan nan nan nan nan nan nan nan nan nan nan nan nan nan nan nan nan nan nan nan nan nan nan nan nan nan 243 227 222 219 211 213 214 206 211 216 214 221 224 221 233 242
nan nan nan nan nan nan nan nan nan nan nan nan nan nan nan nan nan nan nan nan nan nan nan nan nan nan nan nan nan nan nan nan nan nan nan nan nan nan nan nan nan nan nan nan nan nan nan nan nan nan nan nan nan nan nan nan nan nan nan nan nan nan nan nan nan nan nan nan nan nan nan 244 242 234 228 228 221 213 213 205 213 216 212 218 221 231 231 236
nan nan nan nan nan nan nan nan nan nan nan nan nan nan nan nan nan nan nan nan nan nan nan nan nan nan nan nan nan nan nan nan nan nan nan nan nan nan nan nan nan nan nan nan nan nan nan nan nan nan nan nan nan nan nan nan nan nan nan nan nan nan nan nan nan nan nan nan nan nan nan 239 241 234 230 229 224 217 214 210 215 218 218 219 220 224 237 236
nan nan nan nan nan nan nan nan nan nan nan nan nan nan nan nan nan nan nan nan nan nan nan nan nan nan nan nan nan nan nan nan nan nan nan nan nan nan nan nan nan nan nan nan nan nan nan nan nan nan nan nan nan nan nan nan nan nan nan nan nan 249 240 232 235 236 nan nan nan nan nan 236 240 238 234 229 226 221 217 218 218 220 222 224 223 225 232 239
nan nan nan nan nan nan nan nan nan nan nan nan nan nan nan nan nan nan nan nan nan nan nan nan nan nan nan nan nan nan nan nan nan nan nan nan nan nan nan nan nan nan nan nan nan nan nan nan nan nan nan nan nan nan nan nan nan nan 248 251 238 247 246 242 243 248 nan nan nan nan nan 243 244 249 242 227 219 220 219 217 220 221 225 226 231 234 234 240
nan nan nan nan nan nan nan nan nan nan nan nan nan nan nan nan nan nan nan nan nan nan nan nan nan nan nan nan nan nan nan nan nan nan nan nan nan nan nan nan nan nan nan nan nan nan nan nan nan nan nan nan nan nan nan nan nan nan 255 251 252 243 249 254 nan 255 nan 261 261 260 nan 253 260 267 249 227 213 214 217 218 222 228 228 226 230 237 241 243
nan nan nan nan nan nan nan nan nan nan nan nan nan nan nan nan nan nan nan nan nan nan nan nan nan nan nan nan nan nan nan nan nan nan nan nan nan nan nan nan nan nan 252 250 nan nan nan nan nan nan nan nan nan nan nan nan nan nan 275 263 260 252 239 237 nan 246 251 256 263 264 256 274 276 276 258 237 221 215 212 215 219 225 227 229 231 235 241 246
nan nan nan nan nan nan nan nan nan nan nan nan nan nan nan nan nan nan nan nan nan nan nan nan nan nan nan nan nan nan nan nan nan nan nan nan nan nan nan nan nan 260 270 nan nan nan nan nan nan nan nan nan nan nan nan nan nan nan nan nan 265 267 268 nan 255 247 237 236 nan 259 267 279 277 275 266 248 236 230 218 213 218 223 228 231 231 233 241 247
nan nan nan nan nan nan nan nan nan nan nan nan nan nan nan nan nan nan nan nan nan nan nan nan nan nan nan nan nan nan nan nan nan nan nan nan nan nan nan nan nan 272 280 nan nan nan nan nan nan nan nan nan nan nan nan nan nan nan nan nan 263 257 259 nan 273 270 273 267 257 259 256 275 274 268 258 249 242 238 226 216 217 219 226 232 233 231 235 240
nan nan nan nan nan nan nan nan nan nan nan nan nan nan nan nan nan nan nan nan nan nan nan nan nan nan nan nan nan nan nan nan nan nan nan nan nan nan nan nan nan nan nan nan nan nan nan nan nan nan nan nan nan nan nan nan nan nan 267 265 264 261 260 264 271 269 264 266 271 273 266 261 260 253 247 242 241 238 233 222 217 219 226 232 236 236 238 240
nan nan nan nan nan nan nan nan nan nan nan nan nan nan nan nan nan nan nan nan nan nan nan nan nan nan nan nan nan nan nan nan nan nan nan nan nan nan nan nan nan nan nan nan nan nan nan nan nan nan nan nan nan nan nan nan nan nan 274 270 269 271 268 261 266 267 270 271 269 272 272 265 257 249 246 247 245 243 235 228 221 220 229 235 241 243 240 238
nan nan nan nan nan nan nan nan nan nan nan nan nan nan nan nan nan nan nan nan nan nan nan nan nan nan nan nan nan nan nan nan nan nan nan nan nan nan nan nan nan nan nan nan nan nan nan nan nan nan nan nan nan nan nan nan nan nan nan 272 275 278 275 274 268 262 255 264 271 265 263 263 257 252 250 244 241 235 234 232 228 224 225 236 245 245 239 230
nan nan nan nan nan nan nan nan nan nan nan nan nan nan nan nan nan nan nan nan nan nan nan nan nan nan nan nan nan nan nan nan nan nan nan nan nan nan nan nan nan nan nan nan nan nan nan nan nan nan nan nan nan nan nan nan nan nan nan nan 268 259 257 265 263 266 254 255 258 258 252 254 257 256 256 246 243 237 232 233 226 220 227 235 242 243 242 243